GW4081 Weather Reports


Display with metric or nautical units.
time (UTC)temp
F
wind
direction
speed
MPH
gust
MPH
rain 1hr
in
rain 24hr
in
rain mn
in
humidity
%
barometer
mb
20260503224603 83 230 15.0 23.0 0.00 0.00 0.00 28 1011.0
20260503223603 83 222 19.0 28.0 0.00 0.00 0.00 28 1011.0
20260503222603 84 204 16.0 24.0 0.00 0.00 0.00 27 1011.1
20260503221104 84 206 17.0 26.0 0.00 0.00 0.00 27 1011.4
20260503220604 84 207 20.0 26.0 0.00 0.00 0.00 27 1011.4
20260503220103 85 192 18.0 26.0 0.00 0.00 0.00 27 1011.4
20260503215603 85 211 16.0 26.0 0.00 0.00 0.00 27 1011.5
20260503215103 84 196 13.0 25.0 0.00 0.00 0.00 28 1011.5
20260503214604 85 201 16.0 25.0 0.00 0.00 0.00 28 1011.6
20260503214104 85 227 16.0 24.0 0.00 0.00 0.00 28 1011.5
20260503213603 85 227 17.0 23.0 0.00 0.00 0.00 28 1011.7
20260503212603 85 193 15.0 23.0 0.00 0.00 0.00 29 1011.7
20260503212103 85 203 18.0 23.0 0.00 0.00 0.00 28 1011.9
20260503211604 85 199 16.0 23.0 0.00 0.00 0.00 28 1012.0
20260503205604 84 240 16.0 26.0 0.00 0.00 0.00 28 1012.3
20260503205104 84 216 16.0 26.0 0.00 0.00 0.00 25 1012.5
20260503204604 85 226 17.0 26.0 0.00 0.00 0.00 25 1012.7
20260503204104 84 217 15.0 24.0 0.00 0.00 0.00 26 1012.7
20260503203604 85 200 17.0 28.0 0.00 0.00 0.00 26 1012.8
20260503203103 85 198 17.0 28.0 0.00 0.00 0.00 26 1012.8
20260503202104 84 215 15.0 24.0 0.00 0.00 0.00 27 1013.1
20260503201603 85 221 16.0 24.0 0.00 0.00 0.00 26 1013.2
20260503201103 84 227 13.0 25.0 0.00 0.00 0.00 27 1013.3
20260503195603 84 206 16.0 30.0 0.00 0.00 0.00 26 1013.5
20260503194603 84 252 14.0 25.0 0.00 0.00 0.00 26 1013.8
20260503194104 85 201 14.0 25.0 0.00 0.00 0.00 27 1013.7
20260503193605 85 198 13.0 23.0 0.00 0.00 0.00 27 1013.8
20260503190605 84 234 14.0 23.0 0.00 0.00 0.00 27 1014.5
20260503190106 84 221 14.0 26.0 0.00 0.00 0.00 25 1014.6
20260503185605 85 250 13.0 26.0 0.00 0.00 0.00 23 1014.6
20260503185105 84 209 13.0 22.0 0.00 0.00 0.00 23 1014.6
20260503184605 83 218 15.0 22.0 0.00 0.00 0.00 25 1014.7
20260503184105 83 217 13.0 22.0 0.00 0.00 0.00 26 1014.8
20260503182605 84 222 12.0 21.0 0.00 0.00 0.00 30 1014.9
20260503182105 83 213 12.0 22.0 0.00 0.00 0.00 30 1014.9
20260503181605 83 225 15.0 22.0 0.00 0.00 0.00 30 1015.1
20260503181106 83 205 12.0 21.0 0.00 0.00 0.00 33 1015.2
20260503180605 82 216 13.0 21.0 0.00 0.00 0.00 33 1015.2
20260503180106 83 230 17.0 21.0 0.00 0.00 0.00 30 1015.4
20260503174606 83 205 16.0 20.0 0.00 0.00 0.00 32 1015.6
20260503174106 83 229 12.0 20.0 0.00 0.00 0.00 34 1015.6
20260503173605 83 201 12.0 20.0 0.00 0.00 0.00 34 1015.7
20260503173106 82 243 11.0 18.0 0.00 0.00 0.00 32 1015.8
20260503172605 82 234 12.0 17.0 0.00 0.00 0.00 32 1015.9
20260503172105 82 235 12.0 17.0 0.00 0.00 0.00 33 1016.0
20260503171606 81 249 12.0 20.0 0.00 0.00 0.00 35 1016.0
20260503171105 81 211 14.0 20.0 0.00 0.00 0.00 34 1016.1
20260503170606 81 213 15.0 22.0 0.00 0.00 0.00 35 1016.1
20260503170105 80 236 13.0 22.0 0.00 0.00 0.00 36 1016.2
20260503160106 76 198 10.0 16.0 0.00 0.00 0.00 43 1016.4
20260503150605 70 237 12.0 16.0 0.00 0.00 0.00 51 1016.6
20260503140105 64 213 12.0 16.0 0.00 0.00 0.00 59 1016.7
20260503130605 58 196 10.0 14.0 0.00 0.00 0.00 74 1016.5
20260503130105 57 203 10.0 15.0 0.00 0.00 0.00 75 1016.5
20260503120104 55 175 8.0 14.0 0.00 0.00 0.00 78 1016.2
20260503110105 56 163 6.0 10.0 0.00 0.00 0.00 74 1016.2
20260503100104 57 147 7.0 12.0 0.00 0.00 0.00 69 1016.8
20260503090105 59 129 6.0 10.0 0.00 0.00 0.00 65 1017.4
20260503081604 59 167 4.0 8.0 0.00 0.00 0.00 65 1017.7
20260503080605 59 159 5.0 10.0 0.00 0.00 0.00 65 1017.9
20260503080105 59 133 7.0 10.0 0.00 0.00 0.00 65 1017.9
20260503072105 60 139 7.0 10.0 0.00 0.00 0.00 61 1018.3
20260503070605 60 138 7.0 10.0 0.00 0.00 0.00 59 1018.5
20260503060105 61 147 2.0 7.0 0.00 0.00 0.00 56 1019.1
20260503055105 62 124 4.0 8.0 0.00 0.00 0.00 55 1019.1
20260503054604 62 128 6.0 8.0 0.00 0.00 0.00 55 1019.0
20260503054105 62 137 5.0 8.0 0.00 0.00 0.00 55 1019.0
20260503053104 61 131 3.0 8.0 0.00 0.00 0.00 56 1019.0
20260503052605 62 114 3.0 7.0 0.00 0.00 0.00 56 1019.0
20260503052105 62 123 3.0 5.0 0.00 0.00 0.00 56 1019.0
20260503051105 62 134 3.0 7.0 0.00 0.00 0.00 55 1019.0
20260503050605 62 126 3.0 7.0 0.00 0.00 0.00 55 1019.0
20260503050105 62 134 4.0 8.0 0.00 0.00 0.00 55 1019.0
20260503045605 62 123 4.0 9.0 0.00 0.00 0.00 55 1019.0
20260503044104 63 117 6.0 10.0 0.00 0.00 0.00 55 1018.8
20260503043105 63 126 5.0 8.0 0.00 0.00 0.00 55 1018.9
20260503042605 63 110 3.0 9.0 0.00 0.00 0.00 55 1018.8
20260503042105 63 130 5.0 9.0 0.00 0.00 0.00 55 1018.8
20260503041605 63 107 3.0 9.0 0.00 0.00 0.00 56 1018.7
20260503041105 63 115 5.0 9.0 0.00 0.00 0.00 55 1018.8
20260503040104 63 116 3.0 8.0 0.00 0.00 0.00 55 1018.9
20260503035604 63 109 5.0 8.0 0.00 0.00 0.00 55 1018.8
20260503035105 63 107 4.0 8.0 0.00 0.00 0.00 55 1018.8
20260503034605 63 110 4.0 9.0 0.00 0.00 0.00 55 1018.8
20260503034104 63 109 6.0 9.0 0.00 0.00 0.00 55 1018.8
20260503033104 63 93 4.0 7.0 0.00 0.00 0.00 55 1018.8
20260503032604 63 103 3.0 8.0 0.00 0.00 0.00 54 1018.7
20260503032105 64 95 4.0 8.0 0.00 0.00 0.00 54 1018.7
20260503031104 64 109 2.0 6.0 0.00 0.00 0.00 53 1018.6
20260503030105 64 78 2.0 6.0 0.00 0.00 0.00 52 1018.5
20260503025605 64 91 3.0 7.0 0.00 0.00 0.00 52 1018.4
20260503025105 64 78 3.0 7.0 0.00 0.00 0.00 51 1018.4
20260503024604 65 72 2.0 6.0 0.00 0.00 0.00 51 1018.4
20260503024104 65 81 2.0 3.0 0.00 0.00 0.00 51 1018.4
20260503023605 65 84 2.0 8.0 0.00 0.00 0.00 51 1018.3
20260503022605 65 97 2.0 3.0 0.00 0.00 0.00 51 1018.3
20260503022104 65 80 1.0 3.0 0.00 0.00 0.00 50 1018.2
20260503021604 66 80 1.0 3.0 0.00 0.00 0.00 50 1018.2
20260503021104 66 86 1.0 3.0 0.00 0.00 0.00 49 1018.1
20260503020605 67 84 2.0 3.0 0.00 0.00 0.00 48 1018.0
20260503020106 67 93 2.0 3.0 0.00 0.00 0.00 48 1018.0
20260503015605 67 97 1.0 3.0 0.00 0.00 0.00 48 1018.0
20260503015105 68 63 0.0 2.0 0.00 0.00 0.00 47 1018.0
20260503014604 68 62 0.0 3.0 0.00 0.00 0.00 46 1017.9
20260503013604 69 49 1.0 5.0 0.00 0.00 0.00 46 1017.8
20260503013105 69 54 1.0 5.0 0.00 0.00 0.00 45 1017.8
20260503012604 69 69 1.0 3.0 0.00 0.00 0.00 45 1017.7
20260503012104 70 87 1.0 3.0 0.00 0.00 0.00 44 1017.7
20260503011605 70 80 1.0 3.0 0.00 0.00 0.00 43 1017.8
20260503011104 71 56 2.0 5.0 0.00 0.00 0.00 42 1017.7
20260503010105 71 54 2.0 5.0 0.00 0.00 0.00 42 1017.7
20260503005605 71 44 2.0 5.0 0.00 0.00 0.00 41 1017.6
20260503004105 72 11 2.0 9.0 0.00 0.00 0.00 41 1017.6
20260503003105 73 66 4.0 7.0 0.00 0.00 0.00 40 1017.5
20260503002604 73 29 3.0 8.0 0.00 0.00 0.00 40 1017.5
20260503002105 73 14 3.0 8.0 0.00 0.00 0.00 39 1017.5
20260503001604 74 71 3.0 9.0 0.00 0.00 0.00 39 1017.5
20260503000604 74 8 3.0 9.0 0.00 0.00 0.00 39 1017.5
20260503000104 74 58 3.0 8.0 0.00 0.00 0.00 39 1017.5
20260502235605 74 79 3.0 8.0 0.00 0.00 0.00 40 1017.5
20260502234604 74 72 4.0 12.0 0.00 0.00 0.00 39 1017.6
20260502234105 75 44 4.0 12.0 0.00 0.00 0.00 39 1017.6
20260502233605 75 69 2.0 9.0 0.00 0.00 0.00 40 1017.7
20260502233104 75 76 3.0 9.0 0.00 0.00 0.00 40 1017.7
20260502231604 76 60 5.0 10.0 0.00 0.00 0.00 39 1017.7
20260502231105 76 59 3.0 8.0 0.00 0.00 0.00 39 1017.7
20260502230105 76 51 3.0 8.0 0.00 0.00 0.00 39 1017.8
20260502225604 76 34 3.0 8.0 0.00 0.00 0.00 40 1017.8
20260502225104 76 71 3.0 7.0 0.00 0.00 0.00 40 1017.8